This is the latest recevied weather packets stored in our database for station/object K4VEB. If no packets are shown the sender has not sent any weather packets the latest 10 day(s).
| Time | Temp. | Humidity | Pressure | Rain* | Wind** | Luminosity | Snow |
|---|---|---|---|---|---|---|---|
| 1777810155 | 15.56° C | 94% | 1017.6 hPa | 0 mm | - | 103 W/m² | - |
| 1777809853 | 15.56° C | 93% | 1017.5 hPa | 0 mm | - | 112 W/m² | - |
| 1777809550 | 15.56° C | 94% | 1017.6 hPa | 0 mm | - | 43 W/m² | - |
| 1777809248 | 15.56° C | 93% | 1017.5 hPa | 0 mm | - | 39 W/m² | - |
| 1777808946 | 15.56° C | 93% | 1017.5 hPa | 0 mm | - | 38 W/m² | - |
| 1777808642 | 15.56° C | 94% | 1017.2 hPa | 0 mm | - | 44 W/m² | - |
| 1777808339 | 15.56° C | 94% | 1017.1 hPa | 0 mm | - | 37 W/m² | - |
| 1777808038 | 15.56° C | 94% | 1017 hPa | 0 mm | - | 35 W/m² | - |
| 1777807734 | 15.56° C | 94% | 1017.1 hPa | 0 mm | - | 35 W/m² | - |
| 1777807434 | 15.56° C | 94% | 1017 hPa | 0 mm | - | 30 W/m² | - |
| 1777807133 | 15.56° C | 94% | 1017.2 hPa | 0 mm | - | 21 W/m² | - |
| 1777806832 | 15.56° C | 94% | 1016.9 hPa | 0 mm | - | 17 W/m² | - |
| 1777806527 | 15.56° C | 94% | 1016.9 hPa | 0 mm | - | 13 W/m² | - |
| 1777806224 | 15.56° C | 94% | 1016.8 hPa | 0 mm | - | 10 W/m² | - |
| 1777805920 | 15.56° C | 94% | 1016.7 hPa | 0 mm | - | 7 W/m² | - |
| 1777805617 | 15.56° C | 94% | 1016.5 hPa | 0 mm | - | 4 W/m² | - |
| 1777805315 | 15.56° C | 94% | 1016.7 hPa | 0 mm | - | 3 W/m² | - |
| 1777805013 | 15.56° C | 94% | 1016.5 hPa | 0 mm | - | 1 W/m² | - |
| 1777804710 | 15.56° C | 94% | 1016.3 hPa | 0 mm | - | 1 W/m² | - |
| 1777804407 | 15.56° C | 94% | 1016.2 hPa | 0 mm | - | 0 W/m² | - |
| 1777804105 | 15° C | 94% | 1016.4 hPa | 0 mm | - | 0 W/m² | - |
| 1777803801 | 15° C | 93% | 1016.4 hPa | 0 mm | - | 0 W/m² | - |
| 1777803497 | 15° C | 93% | 1016.4 hPa | 0 mm | - | 0 W/m² | - |
| 1777803195 | 15° C | 93% | 1016.4 hPa | 0 mm | - | 0 W/m² | - |
| 1777802892 | 15° C | 93% | 1016.5 hPa | 0 mm | - | 0 W/m² | - |
* Rain latest hour (hover to see other rain measurements)
** Current wind speed in m/s (hover to see current wind gust speed)